FW1492 Weather Reports


Display with metric or nautical units.
time (UTC)temp
F
wind
direction
speed
MPH
gust
MPH
rain 1hr
in
rain 24hr
in
rain mn
in
humidity
%
barometer
mb
20260504234502 64 235 1.0 4.0 0.00 0.00 0.00 49 1010.5
20260504233002 65 205 2.0 4.0 0.00 0.00 0.00 46 1010.1
20260504231501 65 261 3.0 7.0 0.00 0.00 0.00 45 1010.0
20260504230100 66 233 3.0 7.0 0.00 0.00 0.00 44 1009.9
20260504224609 66 213 1.0 6.0 0.00 0.00 0.00 44 1010.0
20260504223134 66 234 2.0 5.0 0.00 0.00 0.00 43 1009.9
20260504221556 67 251 2.0 6.0 0.00 0.00 0.00 42 1010.1
20260504220056 67 233 2.0 8.0 0.00 0.00 0.00 43 1010.4
20260504214554 68 306 2.0 8.0 0.00 0.00 0.00 42 1010.3
20260504213100 68 250 3.0 6.0 0.00 0.00 0.00 42 1010.6
20260504211550 68 260 2.0 6.0 0.00 0.00 0.00 42 1010.6
20260504210051 68 281 3.0 7.0 0.00 0.00 0.00 41 1010.6
20260504204549 68 319 3.0 10.0 0.00 0.00 0.00 41 1010.5
20260504203102 68 265 1.0 9.0 0.00 0.00 0.00 42 1010.4
20260504201544 68 234 5.0 9.0 0.00 0.00 0.00 40 1010.6
20260504200044 67 265 4.0 10.0 0.00 0.00 0.00 42 1010.8
20260504194540 67 243 2.0 7.0 0.00 0.00 0.00 41 1010.9
20260504193038 67 288 4.0 11.0 0.00 0.00 0.00 40 1011.0
20260504191536 67 262 5.0 10.0 0.00 0.00 0.00 40 1011.1
20260504190036 66 203 1.0 9.0 0.00 0.00 0.00 42 1011.4
20260504184530 65 269 3.0 11.0 0.00 0.00 0.00 43 1011.4
20260504183030 66 271 4.0 10.0 0.00 0.00 0.00 41 1011.5
20260504181531 65 287 3.0 8.0 0.00 0.00 0.00 41 1011.9
20260504180027 65 316 4.0 8.0 0.00 0.00 0.00 42 1011.8
20260504174524 64 220 4.0 12.0 0.00 0.00 0.00 42 1012.2
20260504173020 63 252 4.0 9.0 0.00 0.00 0.00 41 1012.2
20260504171517 63 291 5.0 10.0 0.00 0.00 0.00 42 1012.7
20260504150107 58 295 5.0 11.0 0.00 0.00 0.00 44 1014.3
20260504081511 47 266 2.0 6.0 0.00 0.00 0.00 57 1014.9
20260504044556 49 293 3.0 6.0 0.00 0.00 0.00 53 1014.3
20260504043052 49 258 3.0 7.0 0.00 0.00 0.00 52 1014.2
20260504041544 49 269 2.0 8.0 0.00 0.00 0.00 51 1014.0
20260504040059 50 245 3.0 7.0 0.00 0.00 0.00 51 1013.9
20260504034558 50 261 2.0 7.0 0.00 0.00 0.00 50 1013.9
20260504033138 50 290 2.0 6.0 0.00 0.00 0.00 50 1013.9
20260504031538 49 269 4.0 8.0 0.00 0.00 0.00 50 1014.0
20260504030044 49 289 1.0 6.0 0.00 0.00 0.00 50 1013.8
20260504024536 49 269 2.0 5.0 0.00 0.00 0.00 50 1014.0
20260504023036 50 257 2.0 4.0 0.00 0.00 0.00 49 1014.0
20260504021534 49 286 1.0 2.0 0.00 0.00 0.00 49 1013.9
20260504020035 49 277 1.0 3.0 0.00 0.00 0.00 49 1014.1
20260504014534 49 281 0.0 2.0 0.00 0.00 0.00 48 1014.0
20260504013045 49 279 0.0 2.0 0.00 0.00 0.00 48 1013.9
20260504011533 49 292 0.0 1.0 0.00 0.00 0.00 49 1013.8
20260504010032 49 323 0.0 0.0 0.00 0.00 0.00 49 1013.5
20260504004532 50 323 0.0 0.0 0.00 0.00 0.00 48 1013.4
20260504003033 50 323 0.0 0.0 0.00 0.00 0.00 47 1013.2
20260504001530 51 332 1.0 4.0 0.00 0.00 0.00 46 1013.0
20260504000030 52 332 1.0 4.0 0.00 0.00 0.00 45 1012.8